datetime,flow
1961-10-01,986.0
1961-10-02,986.0
1961-10-03,950.0
1961-10-04,926.0
1961-10-05,938.0
1961-10-06,835.0
1961-10-07,962.0
1961-10-08,902.0
1961-10-09,835.0
1961-10-10,962.0
1961-10-11,1010.0
1961-10-12,1010.0
1961-10-13,1110.0
1961-10-14,1180.0
1961-10-15,1180.0
1961-10-16,1150.0
1961-10-17,1140.0
1961-10-18,1200.0
1961-10-19,1270.0
1961-10-20,1220.0
1961-10-21,1330.0
1961-10-22,1390.0
1961-10-23,1320.0
1961-10-24,1500.0
1961-10-25,1540.0
1961-10-26,1590.0
1961-10-27,1600.0
1961-10-28,1600.0
1961-10-29,1660.0
1961-10-30,1740.0
1961-10-31,1770.0
1961-11-01,1400.0
1961-11-02,1980.0
1961-11-03,1830.0
1961-11-04,1960.0
1961-11-05,2000.0
1961-11-06,2030.0
1961-11-07,2090.0
1961-11-08,2180.0
1961-11-09,2230.0
1961-11-10,1690.0
1961-11-11,1220.0
1961-11-12,1560.0
1961-11-13,2070.0
1961-11-14,2230.0
1961-11-15,2410.0
1961-11-16,1950.0
1961-11-17,1700.0
1961-11-18,1520.0
1961-11-19,2030.0
1961-11-20,1930.0
1961-11-21,1870.0
1961-11-22,1160.0
1961-11-23,185.0
1961-11-24,217.0
1961-11-25,267.0
1961-11-26,649.0
1961-11-27,1280.0
1961-11-28,1870.0
1961-11-29,2030.0
1961-11-30,2100.0
1961-12-01,2030.0
1961-12-02,1950.0
1961-12-03,1850.0
1961-12-04,1490.0
1961-12-05,1260.0
1961-12-06,1390.0
1961-12-07,1610.0
1961-12-08,1790.0
1961-12-09,1840.0
1961-12-10,1770.0
1961-12-11,1760.0
1961-12-12,1610.0
1961-12-13,1450.0
1961-12-14,1520.0
1961-12-15,1520.0
1961-12-16,1270.0
1961-12-17,1160.0
1961-12-18,1140.0
1961-12-19,786.0
1961-12-20,301.0
1961-12-21,110.0
1961-12-22,92.0
1961-12-23,494.0
1961-12-24,751.0
1961-12-25,1040.0
1961-12-26,1450.0
1961-12-27,1920.0
1961-12-28,1930.0
1961-12-29,1950.0
1961-12-30,2180.0
1961-12-31,2280.0
1962-01-01,2230.0
1962-01-02,2150.0
1962-01-03,2030.0
1962-01-04,2000.0
1962-01-05,1770.0
1962-01-06,1670.0
1962-01-07,1710.0
1962-01-08,1650.0
1962-01-09,1580.0
1962-01-10,1580.0
1962-01-11,1580.0
1962-01-12,1580.0
1962-01-13,1580.0
1962-01-14,1590.0
1962-01-15,1460.0
1962-01-16,1360.0
1962-01-17,1230.0
1962-01-18,1140.0
1962-01-19,1140.0
1962-01-20,1140.0
1962-01-21,1750.0
1962-01-22,2100.0
1962-01-23,2100.0
1962-01-24,2000.0
1962-01-25,1960.0
1962-01-26,1550.0
1962-01-27,1120.0
1962-01-28,1120.0
1962-01-29,1110.0
1962-01-30,1110.0
1962-01-31,1110.0
1962-02-01,1110.0
1962-02-02,1000.0
1962-02-03,771.0
1962-02-04,761.0
1962-02-05,771.0
1962-02-06,623.0
1962-02-07,506.0
1962-02-08,522.0
1962-02-09,242.0
1962-02-10,143.0
1962-02-11,152.0
1962-02-12,92.0
1962-02-13,133.0
1962-02-14,245.0
1962-02-15,300.0
1962-02-16,248.0
1962-02-17,254.0
1962-02-18,260.0
1962-02-19,266.0
1962-02-20,296.0
1962-02-21,254.0
1962-02-22,188.0
1962-02-23,60.0
1962-02-24,70.0
1962-02-25,158.0
1962-02-26,351.0
1962-02-27,405.0
1962-02-28,317.0
1962-03-01,254.0
1962-03-02,353.0
1962-03-03,320.0
1962-03-04,254.0
1962-03-05,237.0
1962-03-06,210.0
1962-03-07,220.0
1962-03-08,144.0
1962-03-09,58.0
1962-03-10,60.0
1962-03-11,60.0
1962-03-12,232.0
1962-03-13,398.0
1962-03-14,442.0
1962-03-15,367.0
1962-03-16,266.0
1962-03-17,271.0
1962-03-18,266.0
1962-03-19,210.0
1962-03-20,252.0
1962-03-21,398.0
1962-03-22,331.0
1962-03-23,210.0
1962-03-24,119.0
1962-03-25,122.0
1962-03-26,122.0
1962-03-27,122.0
1962-03-28,122.0
1962-03-29,119.0
1962-03-30,200.0
1962-03-31,58.0
1962-04-01,676.0
1962-04-02,1340.0
1962-04-03,1170.0
1962-04-04,1170.0
1962-04-05,1450.0
1962-04-06,1730.0
1962-04-07,1900.0
1962-04-08,2050.0
1962-04-09,2100.0
1962-04-10,2150.0
1962-04-11,2150.0
1962-04-12,2200.0
1962-04-13,2220.0
1962-04-14,2200.0
1962-04-15,2250.0
1962-04-16,2370.0
1962-04-17,2300.0
1962-04-18,1960.0
1962-04-19,1450.0
1962-04-20,1210.0
1962-04-21,1210.0
1962-04-22,1210.0
1962-04-23,1210.0
1962-04-24,1220.0
1962-04-25,1230.0
1962-04-26,1220.0
1962-04-27,946.0
1962-04-28,609.0
1962-04-29,664.0
1962-04-30,664.0
1962-05-01,664.0
1962-05-02,618.0
1962-05-03,591.0
1962-05-04,582.0
1962-05-05,548.0
1962-05-06,582.0
1962-05-07,618.0
1962-05-08,646.0
1962-05-09,722.0
1962-05-10,712.0
1962-05-11,751.0
1962-05-12,782.0
1962-05-13,771.0
1962-05-14,751.0
1962-05-15,792.0
1962-05-16,866.0
1962-05-17,977.0
1962-05-18,867.0
1962-05-19,548.0
1962-05-20,540.0
1962-05-21,506.0
1962-05-22,435.0
1962-05-23,335.0
1962-05-24,348.0
1962-05-25,348.0
1962-05-26,256.0
1962-05-27,189.0
1962-05-28,179.0
1962-05-29,247.0
1962-05-30,328.0
1962-05-31,322.0
1962-06-01,322.0
1962-06-02,264.0
1962-06-03,245.0
1962-06-04,400.0
1962-06-05,423.0
1962-06-06,887.0
1962-06-07,824.0
1962-06-08,646.0
1962-06-09,683.0
1962-06-10,751.0
1962-06-11,751.0
1962-06-12,722.0
1962-06-13,886.0
1962-06-14,855.0
1962-06-15,977.0
1962-06-16,932.0
1962-06-17,855.0
1962-06-18,702.0
1962-06-19,466.0
1962-06-20,458.0
1962-06-21,655.0
1962-06-22,722.0
1962-06-23,683.0
1962-06-24,628.0
1962-06-25,574.0
1962-06-26,683.0
1962-06-27,742.0
1962-06-28,824.0
1962-06-29,834.0
1962-06-30,824.0
1962-07-01,693.0
1962-07-02,933.0
1962-07-03,887.0
1962-07-04,664.0
1962-07-05,732.0
1962-07-06,712.0
1962-07-07,618.0
1962-07-08,618.0
1962-07-09,751.0
1962-07-10,751.0
1962-07-11,664.0
1962-07-12,591.0
1962-07-13,732.0
1962-07-14,813.0
1962-07-15,898.0
1962-07-16,910.0
1962-07-17,910.0
1962-07-18,834.0
1962-07-19,802.0
1962-07-20,943.0
1962-07-21,1010.0
1962-07-22,673.0
1962-07-23,722.0
1962-07-24,910.0
1962-07-25,866.0
1962-07-26,771.0
1962-07-27,771.0
1962-07-28,771.0
1962-07-29,771.0
1962-07-30,771.0
1962-07-31,742.0
1962-08-01,844.0
1962-08-02,797.0
1962-08-03,742.0
1962-08-04,618.0
1962-08-05,609.0
1962-08-06,582.0
1962-08-07,497.0
1962-08-08,458.0
1962-08-09,389.0
1962-08-10,201.0
1962-08-11,108.0
1962-08-12,73.0
1962-08-13,184.0
1962-08-14,384.0
1962-08-15,514.0
1962-08-16,427.0
1962-08-17,522.0
1962-08-18,582.0
1962-08-19,582.0
1962-08-20,582.0
1962-08-21,489.0
1962-08-22,582.0
1962-08-23,582.0
1962-08-24,582.0
1962-08-25,582.0
1962-08-26,582.0
1962-08-27,582.0
1962-08-28,591.0
1962-08-29,582.0
1962-08-30,582.0
1962-08-31,591.0
1962-09-01,683.0
1962-09-02,761.0
1962-09-03,761.0
1962-09-04,761.0
1962-09-05,834.0
1962-09-06,921.0
1962-09-07,921.0
1962-09-08,921.0
1962-09-09,921.0
1962-09-10,761.0
1962-09-11,761.0
1962-09-12,751.0
1962-09-13,751.0
1962-09-14,664.0
1962-09-15,683.0
1962-09-16,693.0
1962-09-17,742.0
1962-09-18,910.0
1962-09-19,932.0
1962-09-20,977.0
1962-09-21,1050.0
1962-09-22,1050.0
1962-09-23,1050.0
1962-09-24,988.0
1962-09-25,921.0
1962-09-26,687.0
1962-09-27,514.0
1962-09-28,834.0
1962-09-29,844.0
1962-09-30,771.0
1962-10-01,771.0
1962-10-02,712.0
1962-10-03,574.0
1962-10-04,844.0
1962-10-05,932.0
1962-10-06,1000.0
1962-10-07,1020.0
1962-10-08,954.0
1962-10-09,772.0
1962-10-10,231.0
1962-10-11,96.0
1962-10-12,115.0
1962-10-13,79.0
1962-10-14,96.0
1962-10-15,89.0
1962-10-16,312.0
1962-10-17,954.0
1962-10-18,1310.0
1962-10-19,1550.0
1962-10-20,1640.0
1962-10-21,1640.0
1962-10-22,1760.0
1962-10-23,1800.0
1962-10-24,1800.0
1962-10-25,1800.0
1962-10-26,1820.0
1962-10-27,1800.0
1962-10-28,1770.0
1962-10-29,1590.0
1962-10-30,1420.0
1962-10-31,1420.0
1962-11-01,1410.0
1962-11-02,1410.0
1962-11-03,1410.0
1962-11-04,1410.0
1962-11-05,1410.0
1962-11-06,1410.0
1962-11-07,1430.0
1962-11-08,1560.0
1962-11-09,1670.0
1962-11-10,1620.0
1962-11-11,1580.0
1962-11-12,1590.0
1962-11-13,1640.0
1962-11-14,1650.0
1962-11-15,1670.0
1962-11-16,1700.0
1962-11-17,1700.0
1962-11-18,1680.0
1962-11-19,1800.0
1962-11-20,1880.0
1962-11-21,1820.0
1962-11-22,1840.0
1962-11-23,1840.0
1962-11-24,1850.0
1962-11-25,1840.0
1962-11-26,1870.0
1962-11-27,1760.0
1962-11-28,1770.0
1962-11-29,1850.0
1962-11-30,1800.0
1962-12-01,1760.0
1962-12-02,1760.0
1962-12-03,1790.0
1962-12-04,1790.0
1962-12-05,1790.0
1962-12-06,1790.0
1962-12-07,1950.0
1962-12-08,2110.0
1962-12-09,2160.0
1962-12-10,2250.0
1962-12-11,2320.0
1962-12-12,2280.0
1962-12-13,2250.0
1962-12-14,2250.0
1962-12-15,2270.0
1962-12-16,2230.0
1962-12-17,2230.0
1962-12-18,2250.0
1962-12-19,2270.0
1962-12-20,2280.0
1962-12-21,2280.0
1962-12-22,2280.0
1962-12-23,2220.0
1962-12-24,2280.0
1962-12-25,2280.0
1962-12-26,2270.0
1962-12-27,2270.0
1962-12-28,2270.0
1962-12-29,2270.0
1962-12-30,2270.0
1962-12-31,2270.0
1963-01-01,2320.0
1963-01-02,2320.0
1963-01-03,2100.0
1963-01-04,2030.0
1963-01-05,2060.0
1963-01-06,2150.0
1963-01-07,2300.0
1963-01-08,2250.0
1963-01-09,2250.0
1963-01-10,2350.0
1963-01-11,2320.0
1963-01-12,2370.0
1963-01-13,2300.0
1963-01-14,2300.0
1963-01-15,1920.0
1963-01-16,1580.0
1963-01-17,1350.0
1963-01-18,1210.0
1963-01-19,1220.0
1963-01-20,1220.0
1963-01-21,1310.0
1963-01-22,1320.0
1963-01-23,1220.0
1963-01-24,1000.0
1963-01-25,1010.0
1963-01-26,1010.0
1963-01-27,1010.0
1963-01-28,1010.0
1963-01-29,1010.0
1963-01-30,954.0
1963-01-31,559.0
1963-02-01,76.0
1963-02-02,70.0
1963-02-03,63.0
1963-02-04,55.0
1963-02-05,52.0
1963-02-06,52.0
1963-02-07,79.0
1963-02-08,119.0
1963-02-09,122.0
1963-02-10,126.0
1963-02-11,103.0
1963-02-12,66.0
1963-02-13,315.0
1963-02-14,481.0
1963-02-15,348.0
1963-02-16,143.0
1963-02-17,70.0
1963-02-18,170.0
1963-02-19,756.0
1963-02-20,1360.0
1963-02-21,1480.0
1963-02-22,1380.0
1963-02-23,1500.0
1963-02-24,1550.0
1963-02-25,1710.0
1963-02-26,1820.0
1963-02-27,1880.0
1963-02-28,1880.0
1963-03-01,1880.0
1963-03-02,1880.0
1963-03-03,1840.0
1963-03-04,1840.0
1963-03-05,1820.0
1963-03-06,1820.0
1963-03-07,1680.0
1963-03-08,1500.0
1963-03-09,1410.0
1963-03-10,1420.0
1963-03-11,1420.0
1963-03-12,1390.0
1963-03-13,1390.0
1963-03-14,1410.0
1963-03-15,1390.0
1963-03-16,1490.0
1963-03-17,1580.0
1963-03-18,1590.0
1963-03-19,1620.0
1963-03-20,1700.0
1963-03-21,1760.0
1963-03-22,890.0
1963-03-23,418.0
1963-03-24,1220.0
1963-03-25,1870.0
1963-03-26,1320.0
1963-03-27,1310.0
1963-03-28,1320.0
1963-03-29,1280.0
1963-03-30,1210.0
1963-03-31,1270.0
1963-04-01,1260.0
1963-04-02,1190.0
1963-04-03,1130.0
1963-04-04,954.0
1963-04-05,844.0
1963-04-06,1210.0
1963-04-07,1900.0
1963-04-08,1670.0
1963-04-09,1760.0
1963-04-10,1900.0
1963-04-11,1930.0
1963-04-12,1920.0
1963-04-13,1930.0
1963-04-14,1930.0
1963-04-15,2150.0
1963-04-16,2750.0
1963-04-17,3100.0
1963-04-18,3230.0
1963-04-19,3690.0
1963-04-20,4020.0
1963-04-21,4140.0
1963-04-22,4500.0
1963-04-23,4730.0
1963-04-24,4600.0
1963-04-25,4140.0
1963-04-26,3400.0
1963-04-27,2750.0
1963-04-28,2250.0
1963-04-29,2080.0
1963-04-30,1950.0
1963-05-01,1820.0
1963-05-02,1700.0
1963-05-03,1670.0
1963-05-04,1760.0
1963-05-05,1800.0
1963-05-06,2180.0
1963-05-07,2630.0
1963-05-08,2630.0
1963-05-09,2810.0
1963-05-10,3020.0
1963-05-11,2730.0
1963-05-12,2500.0
1963-05-13,2750.0
1963-05-14,2830.0
1963-05-15,2590.0
1963-05-16,2270.0
1963-05-17,1900.0
1963-05-18,1520.0
1963-05-19,1060.0
1963-05-20,1050.0
1963-05-21,1460.0
1963-05-22,1730.0
1963-05-23,1730.0
1963-05-24,1730.0
1963-05-25,1730.0
1963-05-26,1730.0
1963-05-27,1710.0
1963-05-28,1700.0
1963-05-29,1460.0
1963-05-30,1020.0
1963-05-31,844.0
1963-06-01,761.0
1963-06-02,693.0
1963-06-03,618.0
1963-06-04,732.0
1963-06-05,977.0
1963-06-06,966.0
1963-06-07,1010.0
1963-06-08,1140.0
1963-06-09,1040.0
1963-06-10,1130.0
1963-06-11,988.0
1963-06-12,932.0
1963-06-13,921.0
1963-06-14,1010.0
1963-06-15,1060.0
1963-06-16,1000.0
1963-06-17,1020.0
1963-06-18,1000.0
1963-06-19,1050.0
1963-06-20,921.0
1963-06-21,887.0
1963-06-22,693.0
1963-06-23,637.0
1963-06-24,628.0
1963-06-25,531.0
1963-06-26,435.0
1963-06-27,442.0
1963-06-28,540.0
1963-06-29,283.0
1963-06-30,156.0
1963-07-01,237.0
1963-07-02,302.0
1963-07-03,302.0
1963-07-04,309.0
1963-07-05,566.0
1963-07-06,813.0
1963-07-07,609.0
1963-07-08,591.0
1963-07-09,548.0
1963-07-10,591.0
1963-07-11,693.0
1963-07-12,802.0
1963-07-13,954.0
1963-07-14,813.0
1963-07-15,712.0
1963-07-16,628.0
1963-07-17,556.0
1963-07-18,489.0
1963-07-19,342.0
1963-07-20,296.0
1963-07-21,384.0
1963-07-22,600.0
1963-07-23,855.0
1963-07-24,844.0
1963-07-25,824.0
1963-07-26,712.0
1963-07-27,771.0
1963-07-28,802.0
1963-07-29,712.0
1963-07-30,712.0
1963-07-31,782.0
1963-08-01,1050.0
1963-08-02,1020.0
1963-08-03,782.0
1963-08-04,771.0
1963-08-05,943.0
1963-08-06,966.0
1963-08-07,966.0
1963-08-08,954.0
1963-08-09,834.0
1963-08-10,664.0
1963-08-11,655.0
1963-08-12,693.0
1963-08-13,761.0
1963-08-14,693.0
1963-08-15,646.0
1963-08-16,506.0
1963-08-17,565.0
1963-08-18,458.0
1963-08-19,419.0
1963-08-20,531.0
1963-08-21,673.0
1963-08-22,591.0
1963-08-23,591.0
1963-08-24,591.0
1963-08-25,450.0
1963-08-26,391.0
1963-08-27,442.0
1963-08-28,522.0
1963-08-29,582.0
1963-08-30,556.0
1963-08-31,742.0
1963-09-01,824.0
1963-09-02,802.0
1963-09-03,782.0
1963-09-04,655.0
1963-09-05,683.0
1963-09-06,574.0
1963-09-07,506.0
1963-09-08,466.0
1963-09-09,522.0
1963-09-10,609.0
1963-09-11,702.0
1963-09-12,751.0
1963-09-13,712.0
1963-09-14,655.0
1963-09-15,655.0
1963-09-16,751.0
1963-09-17,1020.0
1963-09-18,1160.0
1963-09-19,1160.0
1963-09-20,1170.0
1963-09-21,1170.0
1963-09-22,1170.0
1963-09-23,1170.0
1963-09-24,1170.0
1963-09-25,1170.0
1963-09-26,1170.0
1963-09-27,1170.0
1963-09-28,1170.0
1963-09-29,1170.0
1963-09-30,1170.0
1963-10-01,1180.0
1963-10-02,923.0
1963-10-03,880.0
1963-10-04,797.0
1963-10-05,699.0
1963-10-06,671.0
1963-10-07,652.0
1963-10-08,817.0
1963-10-09,827.0
1963-10-10,689.0
1963-10-11,652.0
1963-10-12,747.0
1963-10-13,747.0
1963-10-14,838.0
1963-10-15,913.0
1963-10-16,797.0
1963-10-17,767.0
1963-10-18,767.0
1963-10-19,767.0
1963-10-20,913.0
1963-10-21,980.0
1963-10-22,1050.0
1963-10-23,913.0
1963-10-24,787.0
1963-10-25,767.0
1963-10-26,747.0
1963-10-27,787.0
1963-10-28,880.0
1963-10-29,913.0
1963-10-30,891.0
1963-10-31,902.0
1963-11-01,913.0
1963-11-02,902.0
1963-11-03,891.0
1963-11-04,1070.0
1963-11-05,1170.0
1963-11-06,1100.0
1963-11-07,859.0
1963-11-08,390.0
1963-11-09,64.0
1963-11-10,64.0
1963-11-11,884.0
1963-11-12,1640.0
1963-11-13,1670.0
1963-11-14,1720.0
1963-11-15,1770.0
1963-11-16,1820.0
1963-11-17,1820.0
1963-11-18,1860.0
1963-11-19,1890.0
1963-11-20,1960.0
1963-11-21,2030.0
1963-11-22,2040.0
1963-11-23,2030.0
1963-11-24,2000.0
1963-11-25,1980.0
1963-11-26,1980.0
1963-11-27,2010.0
1963-11-28,2010.0
1963-11-29,2010.0
1963-11-30,1960.0
1963-12-01,1900.0
1963-12-02,1920.0
1963-12-03,1900.0
1963-12-04,1890.0
1963-12-05,1890.0
1963-12-06,1940.0
1963-12-07,1950.0
1963-12-08,1940.0
1963-12-09,1950.0
1963-12-10,1960.0
1963-12-11,1980.0
1963-12-12,2090.0
1963-12-13,2250.0
1963-12-14,2330.0
1963-12-15,2330.0
1963-12-16,2330.0
1963-12-17,2300.0
1963-12-18,2250.0
1963-12-19,2250.0
1963-12-20,2310.0
1963-12-21,2360.0
1963-12-22,2330.0
1963-12-23,2330.0
1963-12-24,2330.0
1963-12-25,2330.0
1963-12-26,2310.0
1963-12-27,2300.0
1963-12-28,2270.0
1963-12-29,2250.0
1963-12-30,2230.0
1963-12-31,2230.0
1964-01-01,2230.0
1964-01-02,2230.0
1964-01-03,2270.0
1964-01-04,2310.0
1964-01-05,2310.0
1964-01-06,2360.0
1964-01-07,2520.0
1964-01-08,2380.0
1964-01-09,2420.0
1964-01-10,2250.0
1964-01-11,2030.0
1964-01-12,2000.0
1964-01-13,2000.0
1964-01-14,2000.0
1964-01-15,1770.0
1964-01-16,1600.0
1964-01-17,1610.0
1964-01-18,1630.0
1964-01-19,1630.0
1964-01-20,1370.0
1964-01-21,1610.0
1964-01-22,2120.0
1964-01-23,2220.0
1964-01-24,2220.0
1964-01-25,2270.0
1964-01-26,2310.0
1964-01-27,2310.0
1964-01-28,2310.0
1964-01-29,2350.0
1964-01-30,2450.0
1964-01-31,2520.0
1964-02-01,2590.0
1964-02-02,2590.0
1964-02-03,2570.0
1964-02-04,2280.0
1964-02-05,2060.0
1964-02-06,2010.0
1964-02-07,1960.0
1964-02-08,1820.0
1964-02-09,1370.0
1964-02-10,913.0
1964-02-11,891.0
1964-02-12,902.0
1964-02-13,624.0
1964-02-14,480.0
1964-02-15,488.0
1964-02-16,496.0
1964-02-17,496.0
1964-02-18,496.0
1964-02-19,488.0
1964-02-20,404.0
1964-02-21,368.0
1964-02-22,301.0
1964-02-23,263.0
1964-02-24,375.0
1964-02-25,615.0
1964-02-26,680.0
1964-02-27,580.0
1964-02-28,375.0
1964-02-29,314.0
1964-03-01,288.0
1964-03-02,282.0
1964-03-03,341.0
1964-03-04,314.0
1964-03-05,263.0
1964-03-06,185.0
1964-03-07,86.0
1964-03-08,66.0
1964-03-09,133.0
1964-03-10,190.0
1964-03-11,150.0
1964-03-12,165.0
1964-03-13,141.0
1964-03-14,100.0
1964-03-15,66.0
1964-03-16,212.0
1964-03-17,263.0
1964-03-18,124.0
1964-03-19,64.0
1964-03-20,166.0
1964-03-21,426.0
1964-03-22,571.0
1964-03-23,607.0
1964-03-24,661.0
1964-03-25,624.0
1964-03-26,504.0
1964-03-27,348.0
1964-03-28,240.0
1964-03-29,124.0
1964-03-30,297.0
1964-03-31,257.0
1964-04-01,237.0
1964-04-02,825.0
1964-04-03,670.0
1964-04-04,128.0
1964-04-05,917.0
1964-04-06,2220.0
1964-04-07,2140.0
1964-04-08,2220.0
1964-04-09,2330.0
1964-04-10,2330.0
1964-04-11,2380.0
1964-04-12,2350.0
1964-04-13,2310.0
1964-04-14,2270.0
1964-04-15,2270.0
1964-04-16,2280.0
1964-04-17,2330.0
1964-04-18,2350.0
1964-04-19,2310.0
1964-04-20,2230.0
1964-04-21,1980.0
1964-04-22,1740.0
1964-04-23,1720.0
1964-04-24,1230.0
1964-04-25,652.0
1964-04-26,633.0
1964-04-27,652.0
1964-04-28,598.0
1964-04-29,737.0
1964-04-30,737.0
1964-05-01,464.0
1964-05-02,301.0
1964-05-03,251.0
1964-05-04,251.0
1964-05-05,257.0
1964-05-06,251.0
1964-05-07,246.0
1964-05-08,223.0
1964-05-09,200.0
1964-05-10,200.0
1964-05-11,200.0
1964-05-12,200.0
1964-05-13,200.0
1964-05-14,206.0
1964-05-15,200.0
1964-05-16,282.0
1964-05-17,341.0
1964-05-18,348.0
1964-05-19,472.0
1964-05-20,598.0
1964-05-21,480.0
1964-05-22,412.0
1964-05-23,563.0
1964-05-24,449.0
1964-05-25,449.0
1964-05-26,504.0
1964-05-27,504.0
1964-05-28,426.0
1964-05-29,282.0
1964-05-30,152.0
1964-05-31,86.0
1964-06-01,86.0
1964-06-02,242.0
1964-06-03,496.0
1964-06-04,633.0
1964-06-05,615.0
1964-06-06,571.0
1964-06-07,449.0
1964-06-08,173.0
1964-06-09,104.0
1964-06-10,95.0
1964-06-11,87.0
1964-06-12,86.0
1964-06-13,85.0
1964-06-14,88.0
1964-06-15,92.0
1964-06-16,93.0
1964-06-17,94.0
1964-06-18,95.0
1964-06-19,93.0
1964-06-20,94.0
1964-06-21,91.0
1964-06-22,89.0
1964-06-23,160.0
1964-06-24,341.0
1964-06-25,381.0
1964-06-26,330.0
1964-06-27,497.0
1964-06-28,698.0
1964-06-29,853.0
1964-06-30,899.0
1964-07-01,903.0
1964-07-02,838.0
1964-07-03,561.0
1964-07-04,181.0
1964-07-05,268.0
1964-07-06,521.0
1964-07-07,680.0
1964-07-08,680.0
1964-07-09,571.0
1964-07-10,501.0
1964-07-11,503.0
1964-07-12,506.0
1964-07-13,482.0
1964-07-14,258.0
1964-07-15,245.0
1964-07-16,352.0
1964-07-17,352.0
1964-07-18,359.0
1964-07-19,369.0
1964-07-20,378.0
1964-07-21,458.0
1964-07-22,711.0
1964-07-23,788.0
1964-07-24,1050.0
1964-07-25,938.0
1964-07-26,620.0
1964-07-27,656.0
1964-07-28,756.0
1964-07-29,646.0
1964-07-30,335.0
1964-07-31,119.0
1964-08-01,91.0
1964-08-02,166.0
1964-08-03,240.0
1964-08-04,376.0
1964-08-05,467.0
1964-08-06,468.0
1964-08-07,467.0
1964-08-08,427.0
1964-08-09,366.0
1964-08-10,400.0
1964-08-11,468.0
1964-08-12,426.0
1964-08-13,316.0
1964-08-14,310.0
1964-08-15,308.0
1964-08-16,306.0
1964-08-17,354.0
1964-08-18,553.0
1964-08-19,692.0
1964-08-20,639.0
1964-08-21,545.0
1964-08-22,425.0
1964-08-23,330.0
1964-08-24,297.0
1964-08-25,406.0
1964-08-26,587.0
1964-08-27,592.0
1964-08-28,478.0
1964-08-29,434.0
1964-08-30,436.0
1964-08-31,437.0
1964-09-01,562.0
1964-09-02,666.0
1964-09-03,719.0
1964-09-04,723.0
1964-09-05,722.0
1964-09-06,722.0
1964-09-07,719.0
1964-09-08,723.0
1964-09-09,723.0
1964-09-10,687.0
1964-09-11,577.0
1964-09-12,531.0
1964-09-13,532.0
1964-09-14,532.0
1964-09-15,562.0
1964-09-16,784.0
1964-09-17,930.0
1964-09-18,925.0
1964-09-19,808.0
1964-09-20,793.0
1964-09-21,849.0
1964-09-22,768.0
1964-09-23,668.0
1964-09-24,695.0
1964-09-25,1050.0
1964-09-26,1220.0
1964-09-27,1210.0
1964-09-28,1010.0
1964-09-29,907.0
1964-09-30,1000.0
1964-10-01,1150.0
1964-10-02,1150.0
1964-10-03,1150.0
1964-10-04,1150.0
1964-10-05,1150.0
1964-10-06,1150.0
1964-10-07,1150.0
1964-10-08,1160.0
1964-10-09,1240.0
1964-10-10,1310.0
1964-10-11,1260.0
1964-10-12,1220.0
1964-10-13,1200.0
1964-10-14,1160.0
1964-10-15,1200.0
1964-10-16,1210.0
1964-10-17,1330.0
1964-10-18,1380.0
1964-10-19,1330.0
1964-10-20,1440.0
1964-10-21,1510.0
1964-10-22,1570.0
1964-10-23,1490.0
1964-10-24,1490.0
1964-10-25,1490.0
1964-10-26,1440.0
1964-10-27,1330.0
1964-10-28,1200.0
1964-10-29,1160.0
1964-10-30,1160.0
1964-10-31,1130.0
1964-11-01,1040.0
1964-11-02,1030.0
1964-11-03,1000.0
1964-11-04,902.0
1964-11-05,870.0
1964-11-06,848.0
1964-11-07,817.0
1964-11-08,797.0
1964-11-09,699.0
1964-11-10,563.0
1964-11-11,652.0
1964-11-12,859.0
1964-11-13,913.0
1964-11-14,859.0
1964-11-15,859.0
1964-11-16,787.0
1964-11-17,680.0
1964-11-18,607.0
1964-11-19,642.0
1964-11-20,727.0
1964-11-21,767.0
1964-11-22,767.0
1964-11-23,767.0
1964-11-24,737.0
1964-11-25,661.0
1964-11-26,661.0
1964-11-27,747.0
1964-11-28,848.0
1964-11-29,891.0
1964-11-30,891.0
1964-12-01,1170.0
1964-12-02,1440.0
1964-12-03,1440.0
1964-12-04,1440.0
1964-12-05,1440.0
1964-12-06,1440.0
1964-12-07,1670.0
1964-12-08,1920.0
1964-12-09,2000.0
1964-12-10,2110.0
1964-12-11,2190.0
1964-12-12,2070.0
1964-12-13,2070.0
1964-12-14,2270.0
1964-12-15,2620.0
1964-12-16,2670.0
1964-12-17,2650.0
1964-12-18,2650.0
1964-12-19,2600.0
1964-12-20,2550.0
1964-12-21,2940.0
1964-12-22,1800.0
1964-12-23,1730.0
1964-12-24,2470.0
1964-12-25,3520.0
1964-12-26,5510.0
1964-12-27,6410.0
1964-12-28,6500.0
1964-12-29,6500.0
1964-12-30,6520.0
1964-12-31,6560.0
1965-01-01,6560.0
1965-01-02,6580.0
1965-01-03,6580.0
1965-01-04,6540.0
1965-01-05,6540.0
1965-01-06,6540.0
1965-01-07,6520.0
1965-01-08,6500.0
1965-01-09,6540.0
1965-01-10,6540.0
1965-01-11,6560.0
1965-01-12,6580.0
1965-01-13,6560.0
1965-01-14,6540.0
1965-01-15,6500.0
1965-01-16,6430.0
1965-01-17,6390.0
1965-01-18,6340.0
1965-01-19,6300.0
1965-01-20,6250.0
1965-01-21,6230.0
1965-01-22,6210.0
1965-01-23,6230.0
1965-01-24,6300.0
1965-01-25,6320.0
1965-01-26,6280.0
1965-01-27,6190.0
1965-01-28,6170.0
1965-01-29,6210.0
1965-01-30,6280.0
1965-01-31,6340.0
1965-02-01,6360.0
1965-02-02,6340.0
1965-02-03,6300.0
1965-02-04,6190.0
1965-02-05,6230.0
1965-02-06,6360.0
1965-02-07,6280.0
1965-02-08,6320.0
1965-02-09,6300.0
1965-02-10,6100.0
1965-02-11,6010.0
1965-02-12,5950.0
1965-02-13,6060.0
1965-02-14,6250.0
1965-02-15,6250.0
1965-02-16,6280.0
1965-02-17,6250.0
1965-02-18,6250.0
1965-02-19,6300.0
1965-02-20,6280.0
1965-02-21,6340.0
1965-02-22,6300.0
1965-02-23,6120.0
1965-02-24,6230.0
1965-02-25,6190.0
1965-02-26,5880.0
1965-02-27,6120.0
1965-02-28,6190.0
1965-03-01,5700.0
1965-03-02,5300.0
1965-03-03,5300.0
1965-03-04,5280.0
1965-03-05,5280.0
1965-03-06,5320.0
1965-03-07,5320.0
1965-03-08,5240.0
1965-03-09,5260.0
1965-03-10,5300.0
1965-03-11,5350.0
1965-03-12,5370.0
1965-03-13,5110.0
1965-03-14,5010.0
1965-03-15,4650.0
1965-03-16,3900.0
1965-03-17,3580.0
1965-03-18,3560.0
1965-03-19,3580.0
1965-03-20,3580.0
1965-03-21,3560.0
1965-03-22,3580.0
1965-03-23,3580.0
1965-03-24,3560.0
1965-03-25,3540.0
1965-03-26,3540.0
1965-03-27,3560.0
1965-03-28,3520.0
1965-03-29,3520.0
1965-03-30,3580.0
1965-03-31,3660.0
1965-04-01,3740.0
1965-04-02,3430.0
1965-04-03,902.0
1965-04-04,1680.0
1965-04-05,4240.0
1965-04-06,2550.0
1965-04-07,1070.0
1965-04-08,827.0
1965-04-09,496.0
1965-04-10,234.0
1965-04-11,170.0
1965-04-12,190.0
1965-04-13,160.0
1965-04-14,234.0
1965-04-15,165.0
1965-04-16,90.0
1965-04-17,90.0
1965-04-18,90.0
1965-04-19,90.0
1965-04-20,93.0
1965-04-21,100.0
1965-04-22,276.0
1965-04-23,246.0
1965-04-24,200.0
1965-04-25,175.0
1965-04-26,175.0
1965-04-27,170.0
1965-04-28,160.0
1965-04-29,146.0
1965-04-30,160.0
1965-05-01,180.0
1965-05-02,180.0
1965-05-03,185.0
1965-05-04,175.0
1965-05-05,175.0
1965-05-06,180.0
1965-05-07,195.0
1965-05-08,190.0
1965-05-09,211.0
1965-05-10,563.0
1965-05-11,1000.0
1965-05-12,1200.0
1965-05-13,1150.0
1965-05-14,902.0
1965-05-15,767.0
1965-05-16,680.0
1965-05-17,934.0
1965-05-18,945.0
1965-05-19,652.0
1965-05-20,598.0
1965-05-21,545.0
1965-05-22,554.0
1965-05-23,767.0
1965-05-24,1150.0
1965-05-25,1290.0
1965-05-26,1240.0
1965-05-27,1370.0
1965-05-28,1170.0
1965-05-29,689.0
1965-05-30,434.0
1965-05-31,276.0
1965-06-01,289.0
1965-06-02,419.0
1965-06-03,457.0
1965-06-04,434.0
1965-06-05,589.0
1965-06-06,787.0
1965-06-07,689.0
1965-06-08,457.0
1965-06-09,464.0
1965-06-10,382.0
1965-06-11,341.0
1965-06-12,270.0
1965-06-13,190.0
1965-06-14,289.0
1965-06-15,263.0
1965-06-16,170.0
1965-06-17,165.0
1965-06-18,165.0
1965-06-19,165.0
1965-06-20,165.0
1965-06-21,165.0
1965-06-22,165.0
1965-06-23,307.0
1965-06-24,397.0
1965-06-25,276.0
1965-06-26,180.0
1965-06-27,175.0
1965-06-28,175.0
1965-06-29,170.0
1965-06-30,211.0
1965-07-01,341.0
1965-07-02,307.0
1965-07-03,246.0
1965-07-04,223.0
1965-07-05,217.0
1965-07-06,348.0